Weather in Lenino-Kokushkino

Russia / Republic of Tatarstan     55°49′30″N   49°41′02″E
temp.,
°C
wind,
m/s
gust,
m/s
humid.,
%
clouds,
%
prec.,
mm/h
press.,
hPa
HPBL,
m
22 january, sat
sat2200:00−14se51396100 0.0 1020237
03:00−13se61495100 0.0 1019270
06:00−12se61494100 0.0 1019351
09:00−10se61394100 0.3 1020413
12:00−8sse71494100 0.6 1020523
15:00−7sse61295100 1.5 1021557
18:00−6se61394100 0.2 1022457
21:00−6se71495100 1.6 1022550
23 january, sun
sun2300:00−6sse71495100 2.9 1023645
03:00−6sse61395100 4.4 1025590
06:00−7sse51094100 0.5 1026373
09:00−7sse4995100 1.0 1029342
12:00−6sse4895100 0.5 1031339
15:00−6sse3796100 0.9 1032313
18:00−6sse3796100 0.6 1034275
21:00−8sse2497100 0.8 103593
24 january, mon
mon2400:00−8sse2396100 0.3 1036118
03:00−9sse1197100 0.4 103724
06:00−12se1197100 0.0 103810
09:00−11e1198100 0.1 10399
12:00−7sse0194100 0.0 103982
15:00−9ese1197100 0.0 103910
18:00−14ese119864 0.0 10399
21:00−17e119831 0.0 10399
25 january, tue
tue2500:00−18sse119744 0.0 10389
03:00−19s22975 0.0 103711
06:00−21sse111005 0.0 10369
09:00−18s33985 0.0 103542
12:00−13s26905 0.0 1033147
15:00−16sse22925 0.0 103134
18:00−20sse22995 0.0 103118
21:00−19sse349983 0.0 102943
26 january, wed
wed2600:00−18s369992 0.0 102874
03:00−18sse37100100 0.0 102797
06:00−18sse36100100 0.0 102689
09:00−16sse389896 0.1 1026157
12:00−13s4995100 0.1 1025257
15:00−12sse3796100 0.1 1025213
18:00−11sse3896100 0.1 1024234
21:00−9s4895100 0.4 1023281